COSMOS 1275 DEB, 42213

Orbit data source: Space-Track

COSMOS 1275 DEB, 42213 is space debris in LEO originally from a launch on Thu, 04 Jun 1981 UTC launched from the Plesetsk Missile And Space Complex (PKMTR). Debris objects in space refer to the collection of defunct objects orbiting the Earth. Examples of debris include non-operational satellites, rocket bodies, and fragments generated from explosions, collisions, or faulty payload assembly.

Loading next visibility...
Identifier
42213, 1981-053UD
Orbit
LEO
Country
Flag of CISCIS
Related business
Manufacturer
Unknown
Mission
Spacecraft
Bus & Motor
Unknown
Mass
Unknown
Launch date (UTC)
1981-06-04 (45 years ago)
Launch vehicle
Unknown
Launch site
Plesetsk Missile And Space Complex (PKMTR)
Object type
Payload
Rocket body
Debris
Shape & HBR
Unknown shape, 0.1 m
Radar Cross Section
Small (<0.1 m²)

Expand to show TLE details & history
Last TLE update: 22 hours ago

TLE from 22 hours ago
0 COSMOS 1275 DEB
1 42213U 81053UD  25340.39051420  .00006907  00000-0  30779-2 0  9997
2 42213  82.8175 231.4598 0047238 346.5223  13.4693 14.22096191176696
Epoch: 2025-12-06T09:22Z
TLE epoch observation values (Epoch: 2025-12-06T09:22:20.426Z)
Latitude
-0.00008°
Longitude
15.45575°
Altitude
788.177 km
Speed
7.477 km/s
True Right ascension
15h 25m 50s
True Declination
0° 00' 00"
Sunlit
Object was in daylight at epoch
Visualization orbit readout
Latitude
Unknown
Longitude
Unknown
Altitude
Unknown
Speed
Unknown
Apparent Right ascension
Unknown
Apparent Declination
Unknown
Sunlit
N/A
Visualization observer readout
Local Sidereal Time
05:26:47
Azimuth
Unknown
Elevation
Unknown
Doppler factor
Unknown
Orbital elements
Apogee altitude
849.342 km
Perigee altitude
781.38 km
Semi-major axis
7,193.498 km
Eccentricity
0.00472
Inclination
82.8175°
RAAN
231.4598°
Arg. of periapsis
346.5223°
True anomaly
13.59611°
Mean anomaly
13.4693°
Eccentric anomaly
13.53263°
Mean motion
3.5574 °/min
Orbital period
101.2 mins
BSTAR
0.0030779
Loading maneuver chart data...
Computing Atmospheric mass density...
Loading historical data...
Loading historical data...
Loading historical data...
Loading historical data...
Loading historical data...
Loading historical data...
Loading historical data...

Documentation

Showing up to 5 results
|